Bartow, FL

9:38 PM EDT on April 21, 2018 (GMT -0400)
Bartow Municipal

Weather History for KBOW - March, 2011

Change the Weather History Date:

Saturday, March 5, 2011

  Actual Average Record
Temperature  
Mean Temperature 69 °F -  
Max Temperature 78 °F 79 °F 89 °F (1932)
Min Temperature 60 °F 55 °F 35 °F (2013)
Cooling Degree Days 4    
Growing Degree Days 19 (Base 50)    
Moisture  
Dew Point 58 °F    
Average Humidity 74    
Maximum Humidity 100    
Minimum Humidity 44    
Precipitation  
Precipitation 0.00 in - - ()
Sea Level Pressure  
Sea Level Pressure 30.14 in    
Wind  
Wind Speed 10 mph (East)    
Max Wind Speed 18 mph    
Max Gust Speed 30 mph    
Visibility 9 miles    
Events      
Averages and records for this station are not official NWS values.
T = Trace of Precipitation, MM = Missing Value Source: NWS Daily Summary

Daily Weather History Graph

Daily Weather History Graph

Search for Another Location

Airport or City:

Astronomy

Mar. 05, 2011 Rise Set
Actual Time 6:47 AM EST 6:29 PM EST
Civil Twilight 6:24 AM EST 6:53 PM EST
Nautical Twilight 5:57 AM EST 7:20 PM EST
Astronomical Twilight 5:30 AM EST 7:47 PM EST
Moon 6:53 AM EST (3/5) 7:23 PM EST (3/5)
Length of Visible Light 12h 28m
Length of Day
11h 41m
New Moon, 1% of the Moon is Illuminated
Mar 5
New Moon
Mar 12
First Quarter
Mar 19
Full
Mar 26
Last Quarter
Apr 3
New

Hourly Weather History & Observations

Time (EST) Temp. Dew Point Humidity Pressure Visibility Wind Dir Wind Speed Gust Speed Precip Events Conditions
12:15 AM 62.6 °F 59.0 °F 88% 30.23 in 10.0 mi ENE 11.5 mph 16.1 mph N/A   Overcast
12:35 AM 62.6 °F 59.0 °F 88% 30.22 in 10.0 mi East 9.2 mph - N/A   Overcast
12:55 AM 62.6 °F 60.8 °F 94% 30.22 in 10.0 mi East 8.1 mph - N/A   Overcast
1:15 AM 62.6 °F 59.0 °F 88% 30.22 in 10.0 mi East 9.2 mph - N/A   Overcast
1:35 AM 62.6 °F 57.2 °F 82% 30.22 in 8.0 mi East 13.8 mph 21.9 mph N/A   Overcast
1:55 AM 60.8 °F 59.0 °F 94% 30.21 in 6.0 mi ENE 12.7 mph 20.7 mph N/A   Overcast
2:15 AM 60.8 °F 59.0 °F 94% 30.20 in 10.0 mi East 10.4 mph - N/A   Overcast
2:35 AM 60.8 °F 60.8 °F 100% 30.19 in 4.0 mi East 8.1 mph - N/A   Mostly Cloudy
2:55 AM 60.8 °F 60.8 °F 100% 30.18 in 8.0 mi East 6.9 mph - N/A   Overcast
3:15 AM 60.8 °F 60.8 °F 100% 30.18 in 10.0 mi East 5.8 mph - N/A   Overcast
3:35 AM 60.8 °F 60.8 °F 100% 30.18 in 8.0 mi East 5.8 mph - N/A   Overcast
3:55 AM 60.8 °F 60.8 °F 100% 30.17 in 10.0 mi ENE 4.6 mph - N/A   Mostly Cloudy
4:15 AM 60.8 °F 60.8 °F 100% 30.17 in 8.0 mi ENE 5.8 mph - N/A   Mostly Cloudy
4:35 AM 60.8 °F 60.8 °F 100% 30.17 in 9.0 mi ENE 4.6 mph - N/A   Mostly Cloudy
4:55 AM 60.8 °F 60.8 °F 100% 30.17 in 9.0 mi ENE 4.6 mph - N/A   Mostly Cloudy
5:15 AM 60.8 °F 60.8 °F 100% 30.17 in 8.0 mi NE 4.6 mph - N/A   Mostly Cloudy
5:35 AM 60.8 °F 60.8 °F 100% 30.17 in 8.0 mi NE 6.9 mph - N/A   Mostly Cloudy
5:55 AM 60.8 °F 60.8 °F 100% 30.17 in 8.0 mi NE 5.8 mph - N/A   Partly Cloudy
6:15 AM 60.8 °F 60.8 °F 100% 30.17 in 7.0 mi NE 4.6 mph - N/A   Clear
6:35 AM 60.8 °F 60.8 °F 100% 30.18 in 7.0 mi NE 5.8 mph - N/A   Clear
6:55 AM 60.8 °F 60.8 °F 100% 30.18 in 5.0 mi NE 6.9 mph - N/A   Clear
7:15 AM 60.8 °F 60.8 °F 100% 30.18 in 7.0 mi ENE 5.8 mph - N/A   Clear
7:35 AM 60.8 °F 60.8 °F 100% 30.18 in 7.0 mi ENE 6.9 mph - N/A   Clear
7:55 AM 60.8 °F 60.8 °F 100% 30.19 in 7.0 mi ENE 5.8 mph - N/A   Clear
8:15 AM 62.6 °F 60.8 °F 94% 30.19 in 7.0 mi East 5.8 mph - N/A   Clear
8:55 AM 64.4 °F 60.8 °F 88% 30.19 in 9.0 mi East 9.2 mph - N/A   Clear
9:35 AM 68.0 °F 57.2 °F 68% 30.19 in 9.0 mi East 12.7 mph - N/A   Clear
9:55 AM 69.8 °F 57.2 °F 64% 30.18 in 9.0 mi East 15.0 mph 19.6 mph N/A   Clear
10:15 AM 71.6 °F 57.2 °F 60% 30.18 in 9.0 mi East 12.7 mph 24.2 mph N/A   Partly Cloudy
10:35 AM 73.4 °F 57.2 °F 57% 30.18 in 9.0 mi East 18.4 mph 21.9 mph N/A   Partly Cloudy
10:55 AM 71.6 °F 55.4 °F 57% 30.18 in 9.0 mi ESE 15.0 mph 29.9 mph N/A   Partly Cloudy
11:15 AM 73.4 °F 57.2 °F 57% 30.17 in 9.0 mi East 16.1 mph 21.9 mph N/A   Partly Cloudy
11:35 AM 75.2 °F 57.2 °F 53% 30.17 in 9.0 mi East 15.0 mph 20.7 mph N/A   Mostly Cloudy
11:55 AM 73.4 °F 55.4 °F 53% 30.16 in 10.0 mi East 15.0 mph - N/A   Mostly Cloudy
12:15 PM 75.2 °F 55.4 °F 50% 30.16 in 9.0 mi ESE 10.4 mph 17.3 mph N/A   Mostly Cloudy
12:35 PM 75.2 °F 55.4 °F 50% 30.15 in 10.0 mi ESE 11.5 mph 18.4 mph N/A   Mostly Cloudy
12:55 PM 75.2 °F 55.4 °F 50% 30.13 in 10.0 mi ESE 15.0 mph 19.6 mph N/A   Mostly Cloudy
1:15 PM 75.2 °F 55.4 °F 50% 30.12 in 10.0 mi East 10.4 mph 18.4 mph N/A   Scattered Clouds
1:35 PM 77.0 °F 55.4 °F 47% 30.11 in 10.0 mi ESE 12.7 mph - N/A   Scattered Clouds
1:55 PM 77.0 °F 55.4 °F 47% 30.11 in 9.0 mi East 12.7 mph 17.3 mph N/A   Scattered Clouds
2:15 PM 77.0 °F 55.4 °F 47% 30.10 in 10.0 mi East 9.2 mph - N/A   Partly Cloudy
2:35 PM 78.8 °F 55.4 °F 44% 30.09 in 10.0 mi East 13.8 mph - N/A   Partly Cloudy
3:15 PM 77.0 °F 55.4 °F 47% 30.08 in 10.0 mi East 9.2 mph - N/A   Clear
3:35 PM 78.8 °F 55.4 °F 44% 30.07 in 10.0 mi East 11.5 mph - N/A   Partly Cloudy
3:55 PM 75.2 °F 55.4 °F 50% 30.06 in 10.0 mi ESE 10.4 mph - N/A   Partly Cloudy
4:15 PM 77.0 °F 55.4 °F 47% 30.06 in 10.0 mi East 13.8 mph - N/A   Partly Cloudy
4:35 PM 75.2 °F 57.2 °F 53% 30.05 in 9.0 mi ENE 13.8 mph - N/A   Clear
4:55 PM 75.2 °F 57.2 °F 53% 30.04 in 9.0 mi East 11.5 mph 18.4 mph N/A   Partly Cloudy
5:15 PM 73.4 °F 55.4 °F 53% 30.04 in 10.0 mi East 13.8 mph 20.7 mph N/A   Partly Cloudy
5:35 PM 73.4 °F 57.2 °F 57% 30.04 in 9.0 mi East 10.4 mph 16.1 mph N/A   Partly Cloudy
5:55 PM 73.4 °F 57.2 °F 57% 30.03 in 9.0 mi East 10.4 mph 16.1 mph N/A   Partly Cloudy
6:15 PM 71.6 °F 57.2 °F 60% 30.03 in 9.0 mi East 11.5 mph - N/A   Scattered Clouds
6:35 PM 71.6 °F 57.2 °F 60% 30.03 in 10.0 mi East 12.7 mph 16.1 mph N/A   Mostly Cloudy
6:55 PM 69.8 °F 57.2 °F 64% 30.04 in 10.0 mi East 12.7 mph - N/A   Partly Cloudy
7:15 PM 69.8 °F 57.2 °F 64% 30.05 in 10.0 mi East 12.7 mph 18.4 mph N/A   Clear
7:35 PM 69.8 °F 57.2 °F 64% 30.06 in 10.0 mi ESE 10.4 mph 17.3 mph N/A   Scattered Clouds
7:55 PM 68.0 °F 57.2 °F 68% 30.06 in 10.0 mi ESE 8.1 mph - N/A   Partly Cloudy
8:15 PM 66.2 °F 57.2 °F 73% 30.07 in 10.0 mi East 4.6 mph - N/A   Clear
8:35 PM 64.4 °F 57.2 °F 77% 30.07 in 10.0 mi Calm Calm - N/A   Clear
8:55 PM 64.4 °F 57.2 °F 77% 30.07 in 10.0 mi East 6.9 mph - N/A   Clear
9:15 PM 64.4 °F 57.2 °F 77% 30.06 in 10.0 mi East 9.2 mph - N/A   Clear
9:35 PM 64.4 °F 57.2 °F 77% 30.07 in 10.0 mi East 8.1 mph - N/A   Mostly Cloudy
9:55 PM 64.4 °F 57.2 °F 77% 30.07 in 10.0 mi East 6.9 mph - N/A   Overcast
10:15 PM 64.4 °F 57.2 °F 77% 30.07 in 10.0 mi ESE 6.9 mph - N/A   Mostly Cloudy
10:35 PM 64.4 °F 59.0 °F 83% 30.08 in 9.0 mi ESE 5.8 mph - N/A   Mostly Cloudy
10:55 PM 64.4 °F 59.0 °F 83% 30.07 in 10.0 mi ESE 9.2 mph - N/A   Scattered Clouds
11:15 PM 64.4 °F 59.0 °F 83% 30.07 in 10.0 mi ESE 6.9 mph - N/A   Scattered Clouds
11:35 PM 64.4 °F 59.0 °F 83% 30.06 in 10.0 mi SE 6.9 mph - N/A   Partly Cloudy
11:55 PM 64.4 °F 60.8 °F 88% 30.06 in 10.0 mi SE 5.8 mph - N/A   Mostly Cloudy